WJA1680 CYYC-KJFK

Flight info

Callsign WJA1680
Flight time 1h 48m
Altitude 35000
Route NOSIV Q909 DESNU DCT MOT DCT DLH/N0455F370 DCT TVC DCT JHW Q476 WLKES PUCKY1
Aircraft B738/M-SDE2E3FGHIRWXY/LB1

Departure

Time 2026-05-04 23:13
Airport Calgary International Airport (CYYC)

Arrival

Time 2026-05-05 01:01
Airport John F. Kennedy International Airport (KJFK)
Time Latitude Longitude Altitude Speed Heading
2026-05-04 22:59 51.12942 -114.00002 3558 ft 0 kts
2026-05-04 23:05 51.12933 -114.00002 3555 ft 4 kts
2026-05-04 23:05 51.12906 -114.00002 3555 ft 4 kts
2026-05-04 23:06 51.12879 -114.00002 3557 ft 3 kts
2026-05-04 23:06 51.12858 -114.00004 3555 ft 4 kts 17°
2026-05-04 23:06 51.12838 -114.00024 3558 ft 4 kts 67°
2026-05-04 23:06 51.12834 -114.00041 3558 ft 1 kts 90°
2026-05-04 23:08 51.12834 -114.00038 3558 ft 3 kts 90°
2026-05-04 23:08 51.12835 -113.99954 3558 ft 12 kts 88°
2026-05-04 23:09 51.12835 -113.99764 3558 ft 22 kts 89°
2026-05-04 23:09 51.12885 -113.99554 3559 ft 23 kts
2026-05-04 23:09 51.12893 -113.99450 3559 ft 15 kts 168°
2026-05-04 23:09 51.12757 -113.99446 3559 ft 24 kts 180°
2026-05-04 23:10 51.12554 -113.99446 3558 ft 34 kts 180°
2026-05-04 23:10 51.12287 -113.99446 3559 ft 43 kts 180°
2026-05-04 23:10 51.11969 -113.99447 3559 ft 47 kts 180°
2026-05-04 23:10 51.11652 -113.99446 3559 ft 44 kts 180°
2026-05-04 23:11 51.11354 -113.99448 3559 ft 41 kts 180°
2026-05-04 23:11 51.11099 -113.99449 3558 ft 19 kts 180°
2026-05-04 23:11 51.11034 -113.99309 3559 ft 18 kts 87°
2026-05-04 23:11 51.11034 -113.99111 3562 ft 18 kts 88°
2026-05-04 23:12 51.11130 -113.99037 3560 ft 18 kts
2026-05-04 23:12 51.11461 -113.99037 3561 ft 80 kts 360°
2026-05-04 23:12 51.12205 -113.99035 3561 ft 133 kts
2026-05-04 23:12 51.13238 -113.99048 3883 ft 153 kts 359°
2026-05-04 23:13 51.14350 -113.99086 4521 ft 171 kts
2026-05-04 23:13 51.15560 -113.98610 4848 ft 197 kts 31°
2026-05-04 23:13 51.16471 -113.96747 4962 ft 235 kts 66°
2026-05-04 23:13 51.16561 -113.93998 5294 ft 265 kts 98°
2026-05-04 23:14 51.15786 -113.91262 5869 ft 282 kts 121°
2026-05-04 23:14 51.14609 -113.88665 6448 ft 295 kts 121°
2026-05-04 23:14 51.10987 -113.79718 8509 ft 317 kts 118°
2026-05-04 23:14 51.06304 -113.67942 11839 ft 316 kts 118°
2026-05-04 23:15 51.01259 -113.55383 13718 ft 363 kts 118°
2026-05-04 23:15 50.95337 -113.40779 14770 ft 424 kts 119°
2026-05-04 23:15 50.88626 -113.24309 16169 ft 460 kts 118°
2026-05-04 23:15 50.81702 -113.06746 17880 ft 483 kts 117°
2026-05-04 23:16 50.74409 -112.88356 19501 ft 499 kts 118°
2026-05-04 23:16 50.66922 -112.69736 21208 ft 508 kts 117°
2026-05-04 23:16 50.59232 -112.50716 22695 ft 520 kts 117°
2026-05-04 23:16 50.51356 -112.31368 23944 ft 535 kts 117°
2026-05-04 23:17 50.43160 -112.11392 24887 ft 548 kts 117°
2026-05-04 23:17 50.34839 -111.91288 26055 ft 552 kts 118°
2026-05-04 23:17 50.31533 -111.83340 26467 ft 555 kts 118°
2026-05-04 23:17 50.29426 -111.78290 26785 ft 554 kts 118°
2026-05-04 23:18 50.27321 -111.73254 27162 ft 553 kts 118°
2026-05-04 23:18 50.25216 -111.68228 27558 ft 551 kts 117°
2026-05-04 23:18 50.23120 -111.63229 27917 ft 550 kts 118°
2026-05-04 23:18 50.21733 -111.59923 28237 ft 550 kts 117°
2026-05-04 23:19 50.17489 -111.49822 28402 ft 561 kts 117°
2026-05-04 23:19 50.15342 -111.44737 28742 ft 560 kts 117°
2026-05-04 23:19 50.13205 -111.39693 29195 ft 556 kts 117°
2026-05-04 23:20 50.11079 -111.34677 29674 ft 553 kts 117°
2026-05-04 23:20 50.08961 -111.29685 30069 ft 552 kts 117°
2026-05-04 23:20 50.06857 -111.24691 30338 ft 550 kts 115°
2026-05-04 23:20 50.05079 -111.19484 30615 ft 540 kts 106°
2026-05-04 23:21 50.03753 -111.14083 30989 ft 528 kts 98°
2026-05-04 23:21 50.02929 -111.08603 31359 ft 516 kts 92°
2026-05-04 23:21 50.02242 -111.03131 31676 ft 514 kts 92°
2026-05-04 23:21 50.01558 -110.97681 31944 ft 514 kts 92°
2026-05-04 23:22 50.00861 -110.92225 32218 ft 516 kts 92°
2026-05-04 23:22 50.00147 -110.86727 32293 ft 521 kts 92°
2026-05-04 23:22 49.99413 -110.81208 32529 ft 520 kts 93°
2026-05-04 23:22 49.98670 -110.75727 32901 ft 517 kts 93°
2026-05-04 23:23 49.97922 -110.70282 33298 ft 513 kts 94°
2026-05-04 23:23 49.97177 -110.64877 33638 ft 511 kts 94°
2026-05-04 23:23 49.96432 -110.59480 33922 ft 510 kts 94°
2026-05-04 23:23 49.95689 -110.54096 34127 ft 511 kts 94°
2026-05-04 23:24 49.94943 -110.48692 34258 ft 512 kts 95°
2026-05-04 23:24 49.94193 -110.43282 34457 ft 512 kts 95°
2026-05-04 23:24 49.93442 -110.37900 34776 ft 509 kts 95°
2026-05-04 23:24 49.92690 -110.32541 35060 ft 507 kts 96°
2026-05-04 23:25 49.91183 -110.21801 35082 ft 511 kts 96°
2026-05-04 23:25 49.89664 -110.11079 35074 ft 507 kts 96°
2026-05-04 23:26 49.88143 -110.00428 35075 ft 505 kts 96°
2026-05-04 23:26 49.86621 -109.89834 35073 ft 503 kts 96°
2026-05-04 23:27 49.85093 -109.79270 35070 ft 502 kts 97°
2026-05-04 23:27 49.83559 -109.68734 35089 ft 501 kts 97°
2026-05-04 23:28 49.82018 -109.58217 35067 ft 501 kts 97°
2026-05-04 23:28 49.80467 -109.47710 35084 ft 501 kts 97°
2026-05-04 23:29 49.78905 -109.37197 35075 ft 502 kts 97°
2026-05-04 23:29 49.77329 -109.26657 35088 ft 504 kts 98°
2026-05-04 23:30 49.75737 -109.16088 35080 ft 505 kts 98°
2026-05-04 23:30 49.74143 -109.05587 35064 ft 506 kts 98°
2026-05-04 23:31 49.72516 -108.94929 35076 ft 506 kts 98°
2026-05-04 23:31 49.70899 -108.84408 35066 ft 507 kts 98°
2026-05-04 23:32 49.69257 -108.73789 35073 ft 509 kts 99°
2026-05-04 23:32 49.67603 -108.63176 35065 ft 508 kts 99°
2026-05-04 23:33 49.65942 -108.52579 35054 ft 508 kts 99°
2026-05-04 23:33 49.64272 -108.41997 35052 ft 507 kts 99°
2026-05-04 23:34 49.62594 -108.31430 35058 ft 507 kts 99°
2026-05-04 23:34 49.60908 -108.20880 35075 ft 507 kts 99°
2026-05-04 23:35 49.59215 -108.10351 35062 ft 505 kts 99°
2026-05-04 23:35 49.57515 -107.99850 35054 ft 504 kts 100°
2026-05-04 23:36 49.55810 -107.89380 35057 ft 503 kts 100°
2026-05-04 23:36 49.54097 -107.78927 35052 ft 503 kts 100°
2026-05-04 23:37 49.52378 -107.68498 35053 ft 502 kts 100°
2026-05-04 23:37 49.50651 -107.58087 35045 ft 502 kts 100°
2026-05-04 23:38 49.48914 -107.47684 35056 ft 502 kts 100°
2026-05-04 23:38 49.47168 -107.37284 35051 ft 503 kts 100°
2026-05-04 23:39 49.45409 -107.26867 35048 ft 504 kts 100°
2026-05-04 23:39 49.43637 -107.16442 35062 ft 505 kts 101°
2026-05-04 23:40 49.41851 -107.06001 35051 ft 505 kts 101°
2026-05-04 23:40 49.40056 -106.95565 35047 ft 506 kts 101°
2026-05-04 23:41 49.38251 -106.85132 35044 ft 506 kts 101°
2026-05-04 23:41 49.36435 -106.74701 35044 ft 506 kts 101°
2026-05-04 23:42 49.34609 -106.64275 35042 ft 507 kts 102°
2026-05-04 23:42 49.32772 -106.53846 35049 ft 506 kts 102°
2026-05-04 23:43 49.30927 -106.43429 35034 ft 506 kts 102°
2026-05-04 23:43 49.29073 -106.33028 35042 ft 506 kts 102°
2026-05-04 23:44 49.26411 -106.18189 35020 ft 506 kts 102°
2026-05-04 23:44 49.18866 -105.76769 35023 ft 505 kts 103°
2026-05-04 23:45 49.11180 -105.35531 35003 ft 505 kts 103°
2026-05-04 23:45 49.03355 -104.94462 35008 ft 504 kts 104°
2026-05-04 23:46 48.95385 -104.53523 34987 ft 504 kts 104°
2026-05-04 23:46 48.87330 -104.13012 34995 ft 504 kts 105°
2026-05-04 23:47 48.79013 -103.72043 34982 ft 504 kts 105°
2026-05-04 23:47 48.70662 -103.31739 34947 ft 505 kts 106°
2026-05-04 23:48 48.62097 -102.91228 34939 ft 506 kts 106°
2026-05-04 23:48 48.53373 -102.50770 34927 ft 507 kts 107°
2026-05-04 23:49 48.44484 -102.10350 34913 ft 509 kts 107°
2026-05-04 23:49 48.35420 -101.69921 34882 ft 510 kts 108°
2026-05-04 23:50 48.26199 -101.29538 34865 ft 511 kts 107°
2026-05-04 23:50 48.23307 -101.08763 34908 ft 509 kts 96°
2026-05-04 23:50 48.21143 -100.87779 34877 ft 510 kts 98°
2026-05-04 23:51 48.15973 -100.45947 34837 ft 511 kts 99°
2026-05-04 23:51 48.10670 -100.04107 34855 ft 512 kts 99°
2026-05-04 23:52 48.05195 -99.62241 34865 ft 514 kts 99°
2026-05-04 23:52 47.99551 -99.20343 34845 ft 515 kts 100°
2026-05-04 23:53 47.93745 -98.78461 34823 ft 516 kts 101°
2026-05-04 23:53 47.87778 -98.36610 34819 ft 517 kts 101°
2026-05-04 23:54 47.81643 -97.94750 34821 ft 518 kts 102°
2026-05-04 23:54 47.75342 -97.52898 34807 ft 519 kts 102°
2026-05-04 23:55 47.68873 -97.11043 34810 ft 520 kts 103°
2026-05-04 23:56 47.58880 -96.48427 34766 ft 521 kts 103°
2026-05-04 23:56 47.52002 -96.06658 34775 ft 523 kts 104°
2026-05-04 23:57 47.44963 -95.64935 34734 ft 523 kts 104°
2026-05-04 23:57 47.37801 -95.23491 34762 ft 524 kts 105°
2026-05-04 23:58 47.30384 -94.81563 34738 ft 525 kts 105°
2026-05-04 23:58 47.22854 -94.39975 34744 ft 526 kts 106°
2026-05-04 23:59 47.15160 -93.98427 34712 ft 527 kts 107°
2026-05-04 23:59 47.07286 -93.56845 34704 ft 529 kts 107°
2026-05-05 00:00 46.99239 -93.15266 34704 ft 531 kts 107°
2026-05-05 00:00 46.91065 -92.73932 34646 ft 534 kts 108°
2026-05-05 00:01 46.82649 -92.32263 34689 ft 535 kts 108°
2026-05-05 00:01 46.72266 -91.91725 34650 ft 533 kts 117°
2026-05-05 00:02 46.60746 -91.51937 34664 ft 533 kts 116°
2026-05-05 00:02 46.49216 -91.12229 34624 ft 533 kts 117°
2026-05-05 00:03 46.37523 -90.72650 34623 ft 534 kts 117°
2026-05-05 00:03 46.25666 -90.33144 34603 ft 536 kts 118°
2026-05-05 00:04 46.15591 -90.00051 34553 ft 538 kts 118°
2026-05-05 00:04 46.03412 -89.60629 34596 ft 539 kts 119°
2026-05-05 00:05 45.91119 -89.21442 34546 ft 542 kts 119°
2026-05-05 00:05 45.76434 -88.75402 34482 ft 543 kts 120°
2026-05-05 00:06 45.65875 -88.42801 34591 ft 546 kts 120°
2026-05-05 00:06 45.59503 -88.23306 35548 ft 536 kts 120°
2026-05-05 00:06 45.53220 -88.04231 36507 ft 527 kts 120°
2026-05-05 00:07 45.40550 -87.66230 36487 ft 533 kts 120°
2026-05-05 00:07 45.27842 -87.28602 36429 ft 520 kts 120°
2026-05-05 00:08 45.15364 -86.92201 36471 ft 510 kts 121°
2026-05-05 00:08 45.02779 -86.55990 36528 ft 518 kts 121°
2026-05-05 00:09 44.89834 -86.19215 36469 ft 524 kts 121°
2026-05-05 00:09 44.76846 -85.82817 36453 ft 515 kts 121°
2026-05-05 00:10 44.64054 -85.47269 36452 ft 506 kts 121°
2026-05-05 00:10 44.51826 -85.11632 36515 ft 510 kts 120°
2026-05-05 00:11 44.39224 -84.75730 36483 ft 516 kts 121°
2026-05-05 00:11 44.26432 -84.39712 36481 ft 518 kts 120°
2026-05-05 00:12 44.13565 -84.03959 36486 ft 513 kts 121°
2026-05-05 00:12 44.00807 -83.68962 36479 ft 500 kts 121°
2026-05-05 00:13 43.88221 -83.34884 36547 ft 496 kts 121°
2026-05-05 00:13 43.75419 -83.00635 36573 ft 505 kts 121°
2026-05-05 00:14 43.62362 -82.66121 36545 ft 508 kts 121°
2026-05-05 00:14 43.49194 -82.31740 36578 ft 505 kts 121°
2026-05-05 00:15 43.36086 -81.97922 36554 ft 495 kts 121°
2026-05-05 00:15 43.23155 -81.64964 36619 ft 488 kts 121°
2026-05-05 00:16 43.10066 -81.31989 36669 ft 499 kts 122°
2026-05-05 00:16 42.96596 -80.98430 36655 ft 505 kts 122°
2026-05-05 00:17 42.87903 -80.76975 36666 ft 498 kts 122°
2026-05-05 00:17 42.84535 -80.68710 36657 ft 493 kts 122°
2026-05-05 00:18 42.81204 -80.60563 36689 ft 492 kts 122°
2026-05-05 00:18 42.77862 -80.52411 36700 ft 494 kts 122°
2026-05-05 00:19 42.74506 -80.44242 36701 ft 495 kts 122°
2026-05-05 00:19 42.71137 -80.36064 36697 ft 496 kts 122°
2026-05-05 00:20 42.67784 -80.27947 36703 ft 495 kts 122°
2026-05-05 00:20 42.64405 -80.19791 36706 ft 495 kts 122°
2026-05-05 00:21 42.61025 -80.11657 36706 ft 495 kts 122°
2026-05-05 00:21 42.57639 -80.03528 36691 ft 494 kts 122°
2026-05-05 00:22 42.54254 -79.95427 36711 ft 494 kts 122°
2026-05-05 00:22 42.50863 -79.87331 36712 ft 494 kts 122°
2026-05-05 00:23 42.47467 -79.79248 36718 ft 494 kts 122°
2026-05-05 00:23 42.44064 -79.71169 36714 ft 494 kts 122°
2026-05-05 00:24 42.40652 -79.63092 36719 ft 494 kts 122°
2026-05-05 00:24 42.37234 -79.55023 36726 ft 494 kts 122°
2026-05-05 00:25 42.33812 -79.46964 36727 ft 494 kts 122°
2026-05-05 00:25 42.30381 -79.38907 36721 ft 495 kts 122°
2026-05-05 00:26 42.26942 -79.30854 36743 ft 495 kts 122°
2026-05-05 00:26 42.23500 -79.22813 36746 ft 495 kts 122°
2026-05-05 00:27 42.20047 -79.14768 36744 ft 495 kts 122°
2026-05-05 00:27 42.17284 -79.06245 36787 ft 498 kts 110°
2026-05-05 00:28 42.15137 -78.97368 36770 ft 499 kts 109°
2026-05-05 00:28 42.12978 -78.88485 36767 ft 499 kts 109°
2026-05-05 00:29 42.10770 -78.79633 36758 ft 499 kts 110°
2026-05-05 00:29 42.08550 -78.70856 36781 ft 499 kts 110°
2026-05-05 00:30 42.06305 -78.62022 36788 ft 499 kts 110°
2026-05-05 00:30 42.04057 -78.53194 36799 ft 499 kts 110°
2026-05-05 00:31 42.01804 -78.44374 36793 ft 499 kts 110°
2026-05-05 00:31 41.99543 -78.35556 36797 ft 499 kts 110°
2026-05-05 00:32 41.97274 -78.26740 36799 ft 499 kts 110°
2026-05-05 00:32 41.94998 -78.17930 36797 ft 499 kts 110°
2026-05-05 00:33 41.92717 -78.09129 36812 ft 499 kts 110°
2026-05-05 00:33 41.90431 -78.00341 36804 ft 499 kts 110°
2026-05-05 00:34 41.88138 -77.91554 36811 ft 499 kts 110°
2026-05-05 00:34 41.85839 -77.82781 36809 ft 499 kts 110°
2026-05-05 00:35 41.83543 -77.74011 36803 ft 498 kts 110°
2026-05-05 00:35 41.81247 -77.65252 36805 ft 498 kts 110°
2026-05-05 00:36 41.78940 -77.56491 36795 ft 498 kts 110°
2026-05-05 00:36 41.76619 -77.47753 36793 ft 498 kts 110°
2026-05-05 00:37 41.74286 -77.39041 36730 ft 493 kts 110°
2026-05-05 00:37 41.73136 -77.34755 36257 ft 487 kts 110°
2026-05-05 00:37 41.71988 -77.30478 35549 ft 489 kts 110°
2026-05-05 00:37 41.70832 -77.26178 34795 ft 493 kts 109°
2026-05-05 00:38 41.69668 -77.21853 34074 ft 495 kts 109°
2026-05-05 00:38 41.68501 -77.17528 33463 ft 493 kts 109°
2026-05-05 00:38 41.67339 -77.13225 32781 ft 491 kts 109°
2026-05-05 00:38 41.66176 -77.08926 31962 ft 493 kts 109°
2026-05-05 00:39 41.65005 -77.04604 31133 ft 495 kts 109°
2026-05-05 00:39 41.63830 -77.00273 30317 ft 497 kts 110°
2026-05-05 00:39 41.62648 -76.95926 29464 ft 497 kts 110°
2026-05-05 00:39 41.61463 -76.91574 28495 ft 499 kts 110°
2026-05-05 00:40 41.60273 -76.87207 27435 ft 502 kts 110°
2026-05-05 00:40 41.59074 -76.82818 26365 ft 505 kts 110°
2026-05-05 00:40 41.57867 -76.78406 25345 ft 507 kts 110°
2026-05-05 00:40 41.56657 -76.73991 24547 ft 504 kts 110°
2026-05-05 00:41 41.55459 -76.69625 23909 ft 498 kts 110°
2026-05-05 00:41 41.54273 -76.65308 23296 ft 492 kts 110°
2026-05-05 00:41 41.53090 -76.61015 23000 ft 494 kts 110°
2026-05-05 00:41 41.51905 -76.56721 22871 ft 494 kts 110°
2026-05-05 00:42 41.50721 -76.52428 22809 ft 492 kts 110°
2026-05-05 00:42 41.49540 -76.48153 22810 ft 490 kts 110°
2026-05-05 00:42 41.48363 -76.43897 22805 ft 489 kts 111°
2026-05-05 00:42 41.46960 -76.38835 22807 ft 490 kts 111°
2026-05-05 00:43 41.42304 -76.22089 22808 ft 491 kts 111°
2026-05-05 00:43 41.37520 -76.05014 22763 ft 493 kts 111°
2026-05-05 00:43 41.32697 -75.87905 22823 ft 493 kts 111°
2026-05-05 00:43 41.27872 -75.70903 22873 ft 492 kts 111°
2026-05-05 00:44 41.22499 -75.54200 22876 ft 491 kts 115°
2026-05-05 00:44 41.16820 -75.37721 22872 ft 491 kts 114°
2026-05-05 00:44 41.11261 -75.21197 22900 ft 489 kts 114°
2026-05-05 00:44 41.05680 -75.04760 22871 ft 489 kts 114°
2026-05-05 00:45 41.00082 -74.88357 22861 ft 489 kts 114°
2026-05-05 00:45 40.97290 -74.70824 22894 ft 486 kts 94°
2026-05-05 00:45 40.96902 -74.65629 22886 ft 486 kts 95°
2026-05-05 00:45 40.96513 -74.61198 22821 ft 480 kts 96°
2026-05-05 00:46 40.96072 -74.56874 22171 ft 472 kts 97°
2026-05-05 00:46 40.95587 -74.52583 21279 ft 471 kts 98°
2026-05-05 00:46 40.95076 -74.48314 20289 ft 472 kts 99°
2026-05-05 00:46 40.94578 -74.44232 19340 ft 475 kts 99°
2026-05-05 00:47 40.94052 -74.39913 18467 ft 475 kts 99°
2026-05-05 00:47 40.93536 -74.35668 17992 ft 462 kts 99°
2026-05-05 00:47 40.93029 -74.31479 17167 ft 459 kts 99°
2026-05-05 00:47 40.92527 -74.27327 16394 ft 455 kts 99°
2026-05-05 00:48 40.92029 -74.23212 15643 ft 452 kts 99°
2026-05-05 00:48 40.91534 -74.19132 14891 ft 448 kts 99°
2026-05-05 00:48 40.91040 -74.15079 14181 ft 445 kts 99°
2026-05-05 00:48 40.90273 -74.11152 13414 ft 440 kts 115°
2026-05-05 00:49 40.89247 -74.08806 12894 ft 435 kts 127°
2026-05-05 00:49 40.87521 -74.05563 12138 ft 431 kts 126°
2026-05-05 00:49 40.85884 -74.02301 11657 ft 419 kts 124°
2026-05-05 00:49 40.84299 -73.99070 10874 ft 418 kts 124°
2026-05-05 00:50 40.82734 -73.95855 10147 ft 416 kts 123°
2026-05-05 00:50 40.81180 -73.92662 9606 ft 408 kts 123°
2026-05-05 00:50 40.79651 -73.89534 8940 ft 403 kts 124°
2026-05-05 00:50 40.78135 -73.86448 8301 ft 398 kts 124°
2026-05-05 00:51 40.76602 -73.83435 7682 ft 393 kts 126°
2026-05-05 00:51 40.75079 -73.80470 7061 ft 389 kts 122°
2026-05-05 00:51 40.74089 -73.77174 6429 ft 389 kts 102°
2026-05-05 00:51 40.73996 -73.73655 5831 ft 387 kts 83°
2026-05-05 00:52 40.74811 -73.70312 5193 ft 384 kts 60°
2026-05-05 00:52 40.76525 -73.67660 4575 ft 379 kts 39°
2026-05-05 00:52 40.78728 -73.65832 3933 ft 373 kts 22°
2026-05-05 00:52 40.81119 -73.64560 3355 ft 368 kts 18°
2026-05-05 00:53 40.83449 -73.63449 3182 ft 353 kts 19°
2026-05-05 00:53 40.84967 -73.62683 3212 ft 339 kts 18°
2026-05-05 00:53 40.87065 -73.61621 3113 ft 319 kts 19°
2026-05-05 00:53 40.89072 -73.60569 2996 ft 302 kts 19°
2026-05-05 00:54 40.90965 -73.59577 2969 ft 284 kts 17°
2026-05-05 00:54 40.92800 -73.58696 2979 ft 280 kts 17°
2026-05-05 00:54 40.94614 -73.57815 2972 ft 272 kts 17°
2026-05-05 00:54 40.96325 -73.56967 2959 ft 253 kts 21°
2026-05-05 00:55 40.98015 -73.54766 2971 ft 225 kts 71°
2026-05-05 00:55 40.97883 -73.50907 3019 ft 210 kts 126°
2026-05-05 00:55 40.95702 -73.48747 3007 ft 193 kts 176°
2026-05-05 00:55 40.93193 -73.49229 2983 ft 179 kts 213°
2026-05-05 00:56 40.91316 -73.51186 2967 ft 167 kts 221°
2026-05-05 00:56 40.89534 -73.53079 2984 ft 164 kts 221°
2026-05-05 00:56 40.87752 -73.54980 2994 ft 165 kts 222°
2026-05-05 00:56 40.85930 -73.56929 2998 ft 171 kts 221°
2026-05-05 00:57 40.84084 -73.58906 3010 ft 171 kts 221°
2026-05-05 00:57 40.82255 -73.60866 3025 ft 164 kts 222°
2026-05-05 00:57 40.80569 -73.62669 2941 ft 150 kts 221°
2026-05-05 00:57 40.78854 -73.64138 2998 ft 145 kts 215°
2026-05-05 00:58 40.77110 -73.65554 2834 ft 150 kts 215°
2026-05-05 00:58 40.75332 -73.66979 2455 ft 148 kts 214°
2026-05-05 00:58 40.73663 -73.68305 2110 ft 127 kts 214°
2026-05-05 00:58 40.72242 -73.69432 1744 ft 112 kts 214°
2026-05-05 00:59 40.71068 -73.70358 1515 ft 116 kts 213°
2026-05-05 00:59 40.70365 -73.70908 1369 ft 121 kts 212°
2026-05-05 00:59 40.69637 -73.71478 1195 ft 121 kts 212°
2026-05-05 00:59 40.68896 -73.72059 1037 ft 125 kts 211°
2026-05-05 01:00 40.68161 -73.72635 855 ft 123 kts 212°
2026-05-05 01:00 40.67463 -73.73197 687 ft 117 kts 208°
2026-05-05 01:00 40.66775 -73.73731 615 ft 119 kts 210°
2026-05-05 01:00 40.66040 -73.74293 532 ft 123 kts 213°
2026-05-05 01:01 40.65312 -73.74889 253 ft 122 kts 208°
2026-05-05 01:01 40.64600 -73.75437 72 ft 116 kts 207°
2026-05-05 01:01 40.63939 -73.75943 21 ft 97 kts 211°
2026-05-05 01:01 40.63492 -73.76291 23 ft 46 kts 210°
2026-05-05 01:02 40.63275 -73.76539 21 ft 40 kts 240°
2026-05-05 01:02 40.63233 -73.76652 20 ft 20 kts 263°
2026-05-05 01:02 40.63247 -73.76737 18 ft 8 kts 299°
2026-05-05 01:02 40.63275 -73.76799 19 ft 8 kts 301°
2026-05-05 01:03 40.63300 -73.76855 20 ft 7 kts 299°
2026-05-05 01:03 40.63326 -73.76913 20 ft 7 kts 300°
2026-05-05 01:03 40.63360 -73.76989 21 ft 15 kts 300°
2026-05-05 01:03 40.63431 -73.77144 23 ft 25 kts 301°
2026-05-05 01:04 40.63538 -73.77380 22 ft 35 kts 301°
2026-05-05 01:04 40.63741 -73.77651 19 ft 16 kts
2026-05-05 01:04 40.63829 -73.77736 22 ft 16 kts 324°
2026-05-05 01:05 40.63929 -73.77826 22 ft 18 kts 332°
2026-05-05 01:05 40.64039 -73.77884 22 ft 16 kts
2026-05-05 01:05 40.64132 -73.77905 22 ft 12 kts 34°
2026-05-05 01:05 40.64153 -73.77878 23 ft 3 kts 46°
2026-05-05 01:06 40.64169 -73.77855 22 ft 0 kts 46°
2026-05-05 01:06 40.64177 -73.77845 22 ft 0 kts 46°